Location: Derby
(52.9213°N, 1.4761°W)
Time: 15:26:08
(UTC+01:00)

Vanguard 2 Rocket - Pass Details

Date: 20 May 2025
Orbit: 554 x 3293 km, 32.9° (Epoch: 14 June)

Event Time Altitude Azimuth Distance (km) Brightness Sun altitude
Rises 04:02:21 0° 258° (WSW) 6,033 10.6 -7.3°
Reaches altitude 10° 04:08:31 10° 243° (WSW) 4,436 9.8 -6.7°
Maximum altitude 04:15:05 17° 208° (SSW) 3,165 9.1 -6.0°
Drops below altitude 10° 04:20:01 10° 170° (S) 3,153 9.3 -5.5°
Sets 04:23:22 0° 150° (SSE) 3,728 9.9 -5.1°
